Riverton, WY

11:19 AM MDT on May 24, 2017 (GMT -0600)
Riverton Regional

Weather History for KRIW - February, 2013

Change the Weather History Date:

Wednesday, February 6, 2013

  Actual Average Record
Temperature  
Mean Temperature 36 °F 22 °F  
Max Temperature 48 °F 33 °F 53 °F (1996)
Min Temperature 24 °F 10 °F -21 °F (2014)
Degree Days  
Heating Degree Days 29 43  
Month to date heating degree days 194 263  
Since 1 July heating degree days 4615 4978  
Cooling Degree Days 0 0  
Month to date cooling degree days 0 0  
Year to date cooling degree days 0 0  
Moisture  
Dew Point 15 °F    
Average Humidity 44    
Maximum Humidity 69    
Minimum Humidity 19    
Precipitation  
Precipitation 0.00 in 0.00 in 0.13 in (2001)
Month to date precipitation 0.00 0.04  
Year to date precipitation 0.11 0.28  
Snow  
Snow 0.00 in - - ()
Month to date snowfall 0.0  
Since 1 July snowfall 10.0  
Snow Depth 0.00 in    
Sea Level Pressure  
Sea Level Pressure 29.93 in    
Wind  
Wind Speed 11 mph (WNW)    
Max Wind Speed 23 mph    
Max Gust Speed 29 mph    
Visibility 10 miles    
Events      
T = Trace of Precipitation, MM = Missing Value Source: NWS Daily Summary

Daily Weather History Graph

Daily Weather History Graph

Search for Another Location

Airport or City:

Trip Planner

Search our weather history database for the weather conditions in past years. The results will help you decide how hot, cold, wet, or windy it might be!

Date:

Astronomy

Feb. 06, 2013 Rise Set
Actual Time 7:22 AM MST 5:33 PM MST
Civil Twilight 6:53 AM MST 6:03 PM MST
Nautical Twilight 6:19 AM MST 6:37 PM MST
Astronomical Twilight 5:46 AM MST 7:10 PM MST
Moon 4:12 AM MST (2/6) 1:52 PM MST (2/6)
Length of Visible Light 11h 10m
Length of Day
10h 10m
Waning Crescent, 16% of the Moon is Illuminated
Feb 6
Waning Crescent
Feb 10
New
Feb 17
First Quarter
Feb 25
Full
Mar 4
Last Quarter

Hourly Weather History & Observations

Time (MST) Temp. Windchill Dew Point Humidity Pressure Visibility Wind Dir Wind Speed Gust Speed Precip Events Conditions
12:53 AM 30.2 °F 24.3 °F 21.2 °F 69% 29.80 in 10.0 mi WSW 5.8 mph - N/A   Clear
1:53 AM 28.0 °F 21.7 °F 19.9 °F 72% 29.82 in 10.0 mi West 5.8 mph - N/A   Clear
2:53 AM 33.1 °F 30.0 °F 19.9 °F 59% 29.79 in 10.0 mi WSW 3.5 mph - N/A   Clear
3:53 AM 26.1 °F 18.4 °F 18.0 °F 71% 29.81 in 10.0 mi SSW 6.9 mph - N/A   Clear
4:53 AM 26.6 °F 20.0 °F 17.6 °F 69% 29.81 in 10.0 mi WSW 5.8 mph - N/A   Clear
5:53 AM 26.1 °F 18.4 °F 16.0 °F 66% 29.87 in 10.0 mi WSW 6.9 mph - N/A   Clear
6:53 AM 26.1 °F 16.2 °F 15.1 °F 63% 29.91 in 10.0 mi West 10.4 mph - N/A   Clear
7:53 AM 27.0 °F 17.3 °F 15.1 °F 61% 29.93 in 10.0 mi West 10.4 mph - N/A   Clear
8:53 AM 34.0 °F 24.6 °F 16.0 °F 48% 29.91 in 10.0 mi West 13.8 mph - N/A   Clear
9:53 AM 37.9 °F 29.2 °F 15.1 °F 39% 29.91 in 10.0 mi WNW 15.0 mph - N/A   Clear
10:53 AM 44.6 °F 37.2 °F 14.0 °F 29% 29.90 in 10.0 mi NW 17.3 mph - N/A   Clear
11:53 AM 46.0 °F 39.0 °F 10.0 °F 23% 29.89 in 10.0 mi NW 17.3 mph - N/A   Clear
12:53 PM 48.0 °F - 8.1 °F 20% 29.88 in 10.0 mi WNW 16.1 mph 20.7 mph N/A   Clear
1:49 PM 44.6 °F 37.8 °F 15.8 °F 31% 29.88 in 10.0 mi NE 15.0 mph 24.2 mph N/A   Scattered Clouds
1:50 PM 44.1 °F 36.8 °F 17.1 °F 34% 29.90 in 10.0 mi NE 16.1 mph 24.2 mph N/A   Scattered Clouds
1:57 PM 42.8 °F 36.2 °F 17.6 °F 36% 29.88 in 10.0 mi NNE 12.7 mph - N/A   Partly Cloudy
2:53 PM 41.0 °F 35.8 °F 17.1 °F 38% 29.91 in 10.0 mi ENE 8.1 mph - N/A   Clear
3:53 PM 41.0 °F 36.4 °F 17.1 °F 38% 29.95 in 10.0 mi ENE 6.9 mph - N/A   Clear
4:53 PM 39.0 °F 36.8 °F 19.0 °F 45% 29.98 in 10.0 mi ENE 3.5 mph - N/A   Overcast
5:53 PM 37.0 °F 34.5 °F 16.0 °F 42% 30.01 in 10.0 mi North 3.5 mph - N/A   Scattered Clouds
6:53 PM 35.1 °F 26.9 °F 14.0 °F 42% 30.06 in 10.0 mi WNW 11.5 mph - N/A   Overcast
7:53 PM 28.9 °F 19.8 °F 10.9 °F 47% 30.09 in 10.0 mi NNW 10.4 mph - N/A   Partly Cloudy
8:53 PM 33.1 °F 21.2 °F 10.9 °F 40% 30.06 in 10.0 mi WNW 20.7 mph - N/A   Clear
9:53 PM 32.0 °F 20.5 °F 12.0 °F 44% 30.09 in 10.0 mi WNW 18.4 mph 27.6 mph N/A   Clear
10:53 PM 30.0 °F 17.9 °F 12.0 °F 47% 30.07 in 10.0 mi West 18.4 mph - N/A   Clear
11:53 PM 25.0 °F 13.6 °F 10.9 °F 55% 30.10 in 10.0 mi NW 12.7 mph - N/A   Clear